User: anonymous   Login
Location: York
(31.8935°S, 116.7682°E)
Time: 05:17:47
(UTC+08:00)
Language:

Explorer 11/Cluster Stage 4 - Orbit

View from above orbital plane
View from above orbital plane
View from above satellite
View from above satellite

Ground track
Ground track

The orbit data is extracted from the following two-line orbital elements,

1 00107U 61013A   21163.74734983  .00000737  00000-0  78986-4 0  9996
2 00107  28.7883 306.2561 0545531 155.2352 207.5460 14.09216633 17091
Epoch (UTC): 12 June 2021 17:56:11
Eccentricity: 0.0545531
inclination: 28.7883°
perigee height: 467 km
apogee height: 1257 km
right ascension of ascending node: 306.2561°
argument of perigee: 155.2352°
revolutions per day: 14.09216633
mean anomaly at epoch: 207.5460°
orbit number at epoch: 1709

The dashed part of the orbit path shows where the satellite is in the earth's shadow,  

DLR